Dewpoint
69 69 69 69 70 69 69 68 69 69 69 69 70 70 70 69 70 70 71 70 70 70 70 70 69 69 70 70 70 70 68 67 64 66 68 69 69 68 71 68 66 64 65
67 67 68 69 70 70 70 69 69 69 69 69 69 68 68 68 67 69 70 71 70 69 69 69 70 72 69 69 69 68 68 69 67 65 67 68 68 70 70 66 66 65 64
66 65 65 66 68 69 70 70 69 69 69 68 67 66 65 66 66 69 70 69 70 69 69 69 69 70 69 69 69 68 68 70 68 66 66 68 69 70 68 66 64 63 62
65 65 65 65 66 68 70 70 69 69 69 68 67 65 63 62 64 68 70 70 70 70 71 71 70 70 69 69 69 69 68 68 67 66 65 66 67 69 68 64 62 62 61
66 66 65 65 65 66 67 70 70 70 69 68 67 67 67 65 64 67 70 70 69 69 71 71 71 71 70 69 70 69 69 67 67 66 66 66 66 68 66 65 63 61 61
65 65 67 66 65 64 65 67 69 70 71 70 68 67 67 67 66 66 69 71 71 70 69 70 71 70 69 67 67 68 69 68 67 66 65 65 65 65 66 66 61 60 59
65 65 66 66 64 64 65 66 67 67 69 70 71 70 69 69 66 66 67 69 70 71 70 70 70 71 68 67 66 66 65 65 66 67 65 65 64 64 65 65 64 61 61
64 65 66 66 65 65 66 66 65 65 65 68 69 69 70 70 65 65 66 69 70 70 71 71 70 69 67 66 64 63 63 62 63 66 65 64 64 63 64 65 64 62 61
66 66 67 66 66 66 67 68 66 65 65 67 68 69 70 70 64 63 65 68 69 70 70 70 70 70 65 63 64 61 59 59 57 58 58 57 59 60 62 62 60 61 60
65 66 67 67 66 66 67 67 68 68 67 69 68 69 67 70 63 61 63 69 69 69 69 69 65 69 62 61 64 61 59 58 54 52 54 57 58 57 62 62 61 59 57
66 65 64 64 64 65 64 63 64 66 68 67 68 68 68 65 66 61 60 66 69 68 68 68 69 62 59 59 61 63 62 60 56 52 55 56 56 57 59 59 62 60 59
64 63 62 62 63 64 62 63 63 63 64 65 67 67 66 65 60 59 58 58 63 68 68 69 67 59 57 58 60 60 58 58 58 56 57 57 54 54 54 55 57 57 55
65 64 63 61 59 60 59 60 62 62 62 64 65 65 64 63 62 58 57 58 59 60 65 66 61 56 57 58 60 60 58 61 59 56 56 56 54 53 54 52 51 51 51
63 63 61 57 54 55 56 57 58 58 60 60 61 61 61 60 60 60 61 61 60 61 62 63 62 60 59 62 62 60 62 62 60 58 59 56 54 55 53 50 47 48 47
61 61 57 56 55 53 50 50 54 51 50 56 58 58 57 56 56 50 52 59 61 58 58 60 60 61 61 61 62 62 62 60 58 58 58 57 56 56 53 53 51 51 45
59 61 57 54 56 55 54 52 48 46 45 44 45 51 54 47 46 46 45 46 49 52 59 59 59 59 59 59 59 59 59 58 57 57 55 55 52 51 50 50 51 48 43
58 58 59 55 55 57 57 56 55 53 47 45 44 44 44 44 44 43 44 48 48 54 59 59 58 58 59 59 59 58 57 58 57 57 55 53 51 49 46 48 50 43 41
57 56 60 59 58 57 58 57 57 57 56 56 50 46 44 45 45 45 45 51 57 56 58 58 58 58 58 58 57 57 56 55 55 53 52 49 46 44 44 45 45 41 41
57 58 61 59 59 58 59 58 58 58 56 55 54 52 48 44 44 47 48 55 55 55 56 57 58 57 57 57 55 55 55 53 51 49 45 45 45 44 43 43 42 43 44
57 58 60 61 60 60 59 59 58 57 55 53 55 56 54 53 55 57 57 57 56 58 58 58 58 58 58 57 56 55 54 52 48 46 45 45 43 42 42 42 43 43 43
58 57 59 57 57 60 59 59 58 57 57 56 55 55 50 55 56 57 58 57 56 56 56 55 58 59 57 55 53 51 50 48 45 45 45 43 42 41 41 42 42 42 41
58 57 57 57 56 59 60 60 59 58 57 57 57 56 49 54 56 57 57 58 58 58 56 55 53 55 55 54 52 50 49 47 45 46 45 44 44 44 43 42 42 42 43
58 57 57 56 56 55 57 59 58 57 56 55 54 54 53 53 54 55 55 56 57 57 56 55 54 52 53 52 52 50 49 47 46 46 46 46 45 45 44 44 43 43 43
59 59 58 57 57 56 55 55 55 52 54 55 54 53 53 52 53 53 54 52 51 51 51 53 54 52 51 52 51 49 49 48 48 48 47 47 46 44 44 44 44 45 46
60 59 59 58 58 57 56 56 56 56 56 56 55 53 52 52 52 53 52 50 49 49 50 52 51 50 50 50 50 49 46 41 46 45 49 48 47 47 46 46 45 46 46
56 55 56 57 58 58 58 57 57 57 57 56 54 52 51 51 51 50 50 49 48 48 51 51 50 49 49 50 49 46 38 36 42 39 48 48 48 47 47 46 45 43 43
Lifted_Index
-2 -2 -3 -3 -3 -3 -3 -3 -3 -3 -3 -3 -2 -2 -3 -4 -3 -4 -4 -4 -4 -4 -3 -3 -3 -3 -3 -3 -3 -3 -3 -3 -3 -2 -2 -2 -2 -2 -2 -2 -1 -1 -1
-2 -2 -2 -3 -3 -3 -3 -3 -3 -3 -3 -3 -3 -3 -3 -3 -3 -3 -4 -4 -4 -4 -3 -3 -3 -3 -4 -3 -3 -3 -3 -3 -3 -2 -2 -2 -2 -2 -2 -2 -2 -1 -1
-2 -1 -1 -2 -2 -3 -3 -4 -4 -3 -3 -3 -3 -3 -3 -3 -3 -3 -3 -4 -4 -4 -3 -3 -3 -4 -4 -4 -3 -3 -3 -3 -3 -2 -2 -2 -2 -2 -2 -2 -2 -1 -1
-1 -1 -0 -1 -1 -2 -2 -3 -4 -3 -3 -3 -3 -3 -3 -3 -2 -2 -2 -3 -4 -4 -4 -4 -4 -4 -4 -4 -3 -3 -3 -3 -3 -2 -2 -2 -2 -2 -2 -2 -2 -1 -1
-1 -1 -0 -0 -1 -1 -2 -2 -3 -3 -3 -3 -3 -3 -3 -3 -2 -2 -2 -3 -4 -4 -4 -4 -4 -4 -4 -4 -4 -4 -3 -3 -2 -2 -2 -2 -2 -2 -2 -2 -1 -1 -1
-1 -1 -0 -0 -0 -0 -1 -2 -3 -3 -3 -3 -3 -3 -3 -3 -3 -2 -3 -3 -4 -4 -4 -4 -4 -4 -4 -4 -4 -3 -3 -3 -2 -2 -2 -2 -2 -2 -2 -2 -1 -0 -0
-1 -1 -1 -1 -1 -0 -0 -1 -2 -2 -3 -3 -3 -4 -4 -4 -4 -3 -4 -4 -4 -4 -4 -4 -4 -4 -4 -4 -4 -3 -3 -3 -2 -2 -2 -1 -1 -1 -1 -1 -0 -0 -0
-2 -2 -2 -1 -1 -0 -0 -1 -1 -2 -2 -3 -3 -3 -4 -4 -4 -4 -4 -4 -4 -4 -5 -5 -4 -4 -4 -4 -3 -3 -3 -2 -2 -1 -1 -1 -1 -0 -0 0 0 0 1
-2 -2 -2 -2 -2 -1 -1 -1 -2 -2 -2 -3 -3 -3 -3 -4 -4 -4 -4 -4 -4 -4 -5 -5 -5 -4 -4 -4 -3 -3 -2 -2 -2 -1 -1 -1 -0 1 1 1 1 2 2
-3 -2 -2 -2 -2 -2 -2 -2 -2 -2 -2 -3 -3 -3 -3 -4 -4 -4 -4 -4 -4 -4 -4 -4 -4 -4 -4 -4 -3 -3 -2 -2 -2 -1 -1 -0 1 1 2 2 2 3 3
-3 -2 -2 -2 -2 -1 -1 -1 -2 -2 -2 -2 -3 -2 -3 -3 -3 -4 -3 -3 -3 -4 -4 -4 -4 -4 -4 -3 -3 -3 -2 -2 -2 -1 -1 0 1 2 3 3 3 3 4
-2 -2 -1 -1 -1 -1 -0 -0 -1 -1 -1 -2 -2 -2 -2 -2 -3 -3 -3 -3 -3 -3 -3 -3 -3 -3 -3 -3 -3 -2 -2 -2 -2 -1 -1 0 1 3 4 5 4 4 4
-1 -0 -0 -0 -0 -0 0 1 0 0 -0 -1 -1 -1 -1 -1 -1 -1 -1 -2 -2 -2 -2 -3 -2 -2 -3 -3 -3 -2 -2 -2 -2 -1 -1 1 3 5 6 7 7 7 7
-0 0 0 1 1 1 1 2 2 1 1 0 0 -0 -0 -0 0 0 0 -0 -0 -1 -1 -2 -2 -2 -2 -3 -2 -2 -2 -2 -1 -0 1 3 5 7 8 8 9 9 9
-0 -0 1 1 1 1 2 2 2 2 2 2 1 1 1 1 2 1 1 1 1 0 -0 -1 -1 -1 -2 -2 -2 -2 -2 -2 -0 2 4 5 6 7 8 9 9 9 10
-0 -0 0 1 1 1 2 2 2 2 2 3 3 3 3 3 3 2 2 2 1 1 0 0 -0 -1 -1 -1 -1 -1 -0 0 2 4 5 6 6 7 7 8 8 8 8
0 0 0 1 1 1 1 1 2 2 3 3 4 4 4 4 4 4 3 3 3 2 2 1 1 1 1 1 1 2 3 3 4 5 6 6 6 7 8 8 7 7 7
1 1 1 1 1 1 1 1 1 2 3 3 4 4 4 4 4 4 4 4 4 3 3 3 3 3 3 3 3 4 4 5 6 6 7 7 7 8 8 8 7 7 8
1 1 1 1 1 1 1 0 0 1 2 2 3 3 3 3 3 3 3 3 3 3 4 4 4 4 4 4 4 5 5 6 6 7 7 7 8 9 9 8 8 8 9
1 1 1 1 1 1 1 0 0 0 0 1 2 2 2 2 2 2 2 2 2 2 3 3 4 4 4 4 4 5 6 6 7 7 7 8 8 9 9 9 9 9 9
1 1 1 1 1 1 0 -0 -0 -1 -1 -0 0 0 1 0 0 0 0 0 1 1 2 3 4 4 4 4 5 6 7 7 7 7 8 8 9 9 9 9 9 9 9
0 1 1 1 1 1 0 -0 -1 -1 -1 -1 -1 -1 -1 -1 -1 -1 -1 -0 0 1 3 4 4 3 3 4 5 6 7 7 7 7 8 8 9 9 9 9 9 9 8
0 0 1 1 1 1 0 -0 -1 -1 -1 -1 -1 -1 -1 -1 -1 -1 -0 0 1 2 3 4 4 3 3 4 5 5 6 6 6 7 7 8 8 8 8 8 8 8 8
-0 -0 0 0 0 0 0 -0 -0 -1 -1 -1 -0 0 0 0 -0 0 1 1 2 3 3 3 3 3 3 4 4 5 5 6 6 6 7 7 7 7 7 7 7 7 7
-1 -1 -1 -0 -0 -0 -0 -0 -0 -1 -0 -0 0 1 2 2 1 1 2 2 3 3 3 3 3 3 4 4 4 5 5 5 5 6 6 6 6 6 6 6 6 6 6
-1 -1 -1 -1 -0 -0 -0 -0 -0 -1 -0 -0 0 1 2 3 3 2 2 3 3 3 3 3 3 3 4 4 4 5 5 5 5 5 5 5 6 6 6 6 6 6 6